This demonstration page uses our WeatherBlox Daily Observations layout. Learn more.

Left ArrowRight Arrow

36.19886, -115.1175

Hourly Observations for April 18, 2021

Temp ( °F °C ) Dew Point ( °F °C ) Humidity (%) Winds ( mph kmh ) Pressure ( in mb ) Visibility ( mi km ) Precip ( " mm )
12:53 am 00:53 Clear 64 17.8 15 -9.4 15 15 NNE 8 13 30.07 1018 10 16 N/A
1:53 am 01:53 Clear 62 16.7 15 -9.4 16 16 NNE 6 9 30.06 1018 10 16 N/A
2:53 am 02:53 Clear 62 16.7 14 -10 15 15 NW 7 11 30.07 1018 10 16 N/A
3:53 am 03:53 Clear 62 16.7 14 -10 15 15 NNW 14 22 30.08 1019 10 16 N/A
4:53 am 04:53 Clear 61 16.1 14 -10 16 16 NW 7 11 30.09 1019 10 16 N/A
5:53 am 05:53 Clear 60 15.6 14 -10 16 16 NNW 12 19 30.11 1020 10 16 N/A
6:53 am 06:53 Sunny 60 15.6 15 -9.4 17 17 NNW 10 17 30.13 1020 10 16 N/A
7:53 am 07:53 Sunny 62 16.7 15 -9.4 16 16 N 15 24 30.14 1021 10 16 N/A
8:53 am 08:53 Sunny 66 18.9 15 -9.4 14 14 NNW 16 26 30.14 1021 10 16 N/A
9:53 am 09:53 Sunny 68 20 14 -10 12 12 NW 15 24 30.13 1020 10 16 N/A
10:53 am 10:53 Sunny 70 21.1 14 -10 11 11 undefined N/A 30.12 1020 10 16 N/A
11:53 am 11:53 Sunny 73 22.8 13 -10.6 10 10 undefined N/A 30.10 1019 10 16 N/A
12:53 pm 12:53 Sunny 74 23.3 12 -11.1 9 9 VRB 5 7 30.08 1019 10 16 N/A
1:53 pm 13:53 Sunny 75 23.9 10 -12.2 8 8 E 5 7 30.05 1018 10 16 N/A
2:53 pm 14:53 Sunny 77 25 8 -13.3 7 7 E 3 6 30.01 1016 10 16 N/A
3:53 pm 15:53 Sunny 79 26.1 5 -15 6 6 ENE 10 17 29.98 1015 10 16 N/A
4:53 pm 16:53 Sunny 78 25.6 4 -15.6 5 5 ESE 9 15 29.96 1015 10 16 N/A
5:53 pm 17:53 Sunny 79 26.1 5 -15 6 6 E 7 11 29.97 1015 10 16 N/A
6:53 pm 18:53 Sunny 77 25 6 -14.4 6 6 N N/A 29.97 1015 10 16 N/A
7:53 pm 19:53 Clear 75 23.9 9 -12.8 8 8 SSE 5 7 29.97 1015 10 16 N/A
8:53 pm 20:53 Clear 73 22.8 11 -11.7 9 9 SW 5 7 29.99 1016 10 16 N/A
9:53 pm 21:53 Clear 68 20 12 -11.1 11 11 NNW 3 6 30.01 1016 10 16 N/A
10:53 pm 22:53 Clear 68 20 12 -11.1 11 11 N N/A 30.01 1016 10 16 N/A
11:53 pm 23:53 Clear 62 16.7 14 -10 15 15 NW 5 7 30.01 1016 10 16 N/A

Powered by AerisWeather